[[{"header":{"parameterUnit":"m.s-1","parameterCategory":1,"la1":30.2991,"la2":30.254,"lo1":-89.0895,"lo2":-89.0444,"dy":0.0017,"dx":0.0017,"nx":28,"ny":28,"refTime":"2025-06-06T03:00:00:Z","depth":0,"parameterNumber":2,"parameterNumberName":"U-component_of_WINDS"},"data":[0,0,0,0,0,0,0,0,0,0,0,0,0,0,0,0,0,0,0,0,0,0,0,0,0,0,0,0,0,0,0,0,0,0,0,0,0,0,0,0,0,0,0,0,0,0,0,0,0,0,0,0,0,0,0,0,0,0,0.9874,0.9876,0,1.0068,1.007,1.0072,1.0167,1.0167,1.0167,1.0167,1.0371,1.0376,1.0381,0,0,0,0,0,0,0,0,0,0,0,0,0,0.9592,0.9597,0.9874,0.9876,0.9879,1.0067,1.007,1.0073,1.0167,1.0167,1.0167,1.0167,1.0369,1.0375,1.0382,0,0,0,0,0,0,0,0,0,0,0,0,0,0.9743,0.9598,0.9873,0.9948,0.9957,1.0067,1.007,1.0073,1.0167,1.0167,1.0167,1.0167,1.0367,1.0375,1.0383,1.0434,0,0,1.0408,1.0411,0,0,0,0,0,0,0,0,0.9734,0.9753,0.9935,0.9943,0.9953,1.0093,1.0046,1.0195,1.0167,1.0088,1.0167,1.0167,1.0279,1.0294,1.0331,1.0443,1.0452,1.0408,1.0413,1.0417,1.0419,0,0,0,0,0,0,0,0.9724,0.9746,0.9951,0.9938,0.9949,0.9975,0.9996,1.0074,1.0181,1.0095,1.0102,1.0123,1.0284,1.0323,1.0336,1.0455,1.0408,1.0415,1.042,1.0424,1.0624,1.0624,0,0,0,0,0,0,0.97,0.9736,0.9945,0.9957,0.9841,0.998,1.0004,1.0048,1.0181,1.0201,1.0123,1.0127,1.0309,1.0327,1.0344,1.0415,1.0417,1.0424,1.0429,1.0623,1.0624,1.0624,0,0,0,0,0,0,0.9694,0.9718,0.9937,0.9848,0.9878,0.9985,1.0034,1.0052,1.0091,1.0202,1.0222,1.0143,1.0309,1.0332,1.0411,1.0423,1.0428,1.0436,1.0623,1.0623,1.0624,1.0555,0,0,0,0,0,0,0.9685,0.9715,0.9734,0.9848,0.9882,0.9999,1.0035,1.0056,1.0104,1.0111,1.0226,1.0245,1.0311,1.0399,1.0419,1.0434,1.0442,1.0622,1.0623,1.0624,1.0557,1.0553,1.055,0,0,0,0,0,0.9675,0.9707,0.9734,0.9759,0.9908,0.9999,1.0019,1.0093,1.0105,1.0126,1.0198,1.0241,1.0418,1.0406,1.043,1.0448,1.0622,1.0623,1.0624,1.0558,1.0554,1.055,0,0,0,0,0,0,0.9592,0.9723,0.9755,0.9824,0.99,1.0015,1.0043,1.0086,1.0161,1.0164,1.0255,1.028,1.0351,1.0408,1.0392,1.0506,1.0525,1.053,1.0466,1.0463,1.046,1.0445,1.0449,0,0,0,0,0,0.9581,0.9643,0.9755,0.9805,0.9842,0.9936,0.9978,1.0029,1.0112,1.0144,1.0222,1.0302,1.0376,1.0423,1.0497,1.0565,1.0593,1.059,1.0586,1.0583,1.0587,1.0631,1.0631,1.0627,1.0627,1.0627,0,0,0.9561,0.964,0.9673,0.9791,0.9855,0.9919,0.9962,1.0027,1.0076,1.0155,1.0234,1.0294,1.039,1.0464,1.0501,1.0513,1.0595,1.0584,1.0581,1.0587,1.0632,1.0632,1.0632,1.0628,1.0628,1.0628,0,0,0.9556,0.9621,0.9672,0.9736,0.9833,0.9896,0.9907,1.0017,1.006,1.0141,1.0202,1.0263,1.0387,1.0454,1.0504,1.0527,1.0571,1.0549,1.0532,1.0573,1.0574,1.0574,1.0585,1.0587,1.0553,1.0552,1.0552,0,0.9518,0.9615,0.9692,0.9755,0.9806,0.988,0.9933,0.9992,1.0109,1.0143,1.0155,1.0315,1.0385,1.0477,1.0483,1.052,1.0539,1.0536,1.0567,1.0568,1.057,1.0581,1.0585,1.0549,1.055,1.055,1.055,0,0.9565,0.9632,0.9661,0.9771,0.9826,0.9883,0.9972,1.0019,1.0065,1.0128,1.0211,1.0297,1.0391,1.0417,1.0463,1.0517,1.0522,1.0549,1.057,1.0566,1.0578,1.0583,1.0545,1.0546,1.0547,1.0548,0,0,0.9512,0.9666,0.9676,0.9728,0.9841,0.9896,0.9958,1.0049,1.0088,1.0167,1.0223,1.0328,1.0355,1.0411,1.0466,1.0502,1.0518,1.0526,1.053,1.0523,1.0586,1.0565,1.0569,1.0548,1.0549,1.055,1.0578,0,0.9524,0.9637,0.971,0.9796,0.986,0.9932,0.9987,1.0064,1.0125,1.019,1.0258,1.0332,1.036,1.0395,1.0434,1.0508,1.0532,1.0507,1.0603,1.0606,1.0578,1.0575,1.0553,1.0575,1.0583,1.0584,1.0585,0,0.9553,0.9629,0.972,0.983,0.986,0.9907,0.9998,1.0059,1.0149,1.0191,1.0255,1.0311,1.0383,1.0397,1.0499,1.048,1.0524,1.0566,1.0569,1.0582,1.0595,1.0588,1.0584,1.0588,1.0593,1.0592,1.0591,0,0.9507,0.9633,0.9705,0.9747,0.9876,0.9908,0.9963,1.0054,1.0104,1.0185,1.0219,1.0307,1.0355,1.0423,1.0502,1.0505,1.0597,1.0617,1.0636,1.0633,1.0652,1.065,1.0656,1.0678,1.0678,1.0678,1.0678,0,0.9513,0.9566,0.9686,0.973,0.9793,0.9878,0.9939,1.0001,1.0081,1.014,1.0209,1.0263,1.0364,1.0432,1.0495,1.0571,1.0592,1.063,1.0646,1.0624,1.0619,1.0655,1.0656,1.0679,1.0679,1.0679,1.0678,0,0.9472,0.9554,0.9637,0.9753,0.9783,0.9825,0.9925,0.9972,1.0037,1.0112,1.0134,1.0237,1.0321,1.0407,1.052,1.0562,1.0637,1.0658,1.0606,1.0615,1.0629,1.0627,1.0659,1.0668,1.0683,1.0682,1.0682,0,0.9471,0.9514,0.9634,0.9679,0.9732,0.9803,0.9855,0.9942,0.9994,1.0102,1.0137,1.0225,1.0301,1.0431,1.0517,1.0605,1.063,1.0636,1.0644,1.0622,1.0633,1.0629,1.0635,1.0632,1.0632,1.0631,1.0631,0,0.9461,0.95,0.9572,0.966,0.9721,0.9794,0.987,0.9903,1.0005,1.006,1.0146,1.0205,1.0321,1.0409,1.0508,1.0568,1.0617,1.0627,1.0637,1.0615,1.0583,1.0603,1.0598,1.0626,1.0627,1.0627,1.0627,1.0628,0.9441,0.9484,0.9576,0.9655,0.9722,0.9792,0.9842,0.9914,0.9987,1.0087,1.0135,1.0222,1.0314,1.0452,1.0511,1.0581,1.0595,1.0608,1.0611,1.0614,1.0609,1.0571,1.0599,1.06,1.06,1.06,1.06,0,0.9436,0.9499,0.9571,0.9676,0.9739,0.9779,0.9867,0.9917,0.9992,1.0074,1.0147,1.0248,1.0334,1.0427,1.052,1.0559,1.0584,1.058,1.0579,1.0592,1.0591,1.0574,1.0559,1.0559,1.0559,1.0559,1.0559,1.0559,0.944,0.9515,0.9566,0.9676,0.974,0.9825,0.9871,0.9937,1.0003,1.0112,1.0184,1.0244,1.0331,1.0431,1.0513,1.0539,1.057,1.056,1.0592,1.0589,1.0592,1.0595,1.058,1.0566,1.0566,1.0589,1.0589,1.0589]},{"header":{"parameterUnit":"m.s-1","parameterCategory":1,"la1":30.2991,"la2":30.254,"lo1":-89.0895,"lo2":-89.0444,"dy":0.0017,"dx":0.0017,"nx":28,"ny":28,"refTime":"2025-06-06T03:00:00:Z","depth":0,"parameterNumber":3,"parameterNumberName":"V-component_of_WINDS"},"data":[0,0,0,0,0,0,0,0,0,0,0,0,0,0,0,0,0,0,0,0,0,0,0,0,0,0,0,0,0,0,0,0,0,0,0,0,0,0,0,0,0,0,0,0,0,0,0,0,0,0,0,0,0,0,0,0,0,0,5.5209,5.521,0,5.5262,5.5262,5.5263,5.5236,5.5234,5.5233,5.5232,5.5278,5.5281,5.5283,0,0,0,0,0,0,0,0,0,0,0,0,0,5.5078,5.508,5.5209,5.521,5.521,5.5261,5.5262,5.5263,5.5236,5.5234,5.5233,5.5231,5.5278,5.5281,5.5284,0,0,0,0,0,0,0,0,0,0,0,0,0,5.5133,5.5081,5.5209,5.5203,5.5203,5.5261,5.5262,5.5263,5.5236,5.5234,5.5232,5.523,5.5277,5.528,5.5284,5.5348,0,0,5.5296,5.5297,0,0,0,0,0,0,0,0,5.513,5.5138,5.5203,5.5204,5.5204,5.524,5.5233,5.5291,5.5237,5.5223,5.5232,5.5229,5.5267,5.5271,5.5285,5.5351,5.5353,5.5296,5.5298,5.53,5.5301,0,0,0,0,0,0,0,5.5126,5.5135,5.5229,5.5204,5.5205,5.5196,5.5201,5.5244,5.5256,5.5224,5.5223,5.523,5.5266,5.5282,5.5286,5.5353,5.5296,5.5299,5.5301,5.5303,5.5474,5.5476,0,0,0,0,0,0,5.5123,5.5132,5.5228,5.5231,5.5161,5.52,5.5206,5.523,5.5255,5.5257,5.5231,5.5228,5.5276,5.5282,5.5288,5.5366,5.53,5.5303,5.5305,5.5472,5.5474,5.5477,0,0,0,0,0,0,5.5121,5.5132,5.5226,5.5181,5.5192,5.5204,5.5232,5.5233,5.5248,5.5261,5.5262,5.5246,5.5275,5.5283,5.5334,5.5367,5.5305,5.5308,5.5469,5.5472,5.5476,5.5521,0,0,0,0,0,0,5.5117,5.5131,5.5158,5.5182,5.5195,5.5273,5.5234,5.5235,5.5255,5.5252,5.5274,5.5276,5.5274,5.5329,5.5338,5.5371,5.5311,5.5466,5.5471,5.5475,5.5517,5.5526,5.5533,0,0,0,0,0,5.5112,5.5167,5.5159,5.5171,5.5229,5.5275,5.5282,5.5281,5.5258,5.5284,5.5292,5.5275,5.5362,5.5334,5.5344,5.5379,5.5464,5.5469,5.5474,5.5513,5.5524,5.5533,0,0,0,0,0,0,5.5143,5.517,5.5162,5.5226,5.5249,5.5271,5.5303,5.5293,5.5321,5.5316,5.5311,5.5316,5.537,5.5379,5.5348,5.5442,5.5409,5.5416,5.5435,5.5445,5.5454,5.545,5.5315,0,0,0,0,0,5.5158,5.5196,5.5216,5.5271,5.5283,5.5291,5.5312,5.5309,5.5331,5.534,5.5352,5.5372,5.5404,5.5425,5.5455,5.5518,5.5522,5.5546,5.5555,5.5561,5.5568,5.5602,5.5613,5.5494,5.5494,5.5493,0,0,5.5188,5.5207,5.5231,5.5278,5.5295,5.5333,5.53,5.534,5.5368,5.5345,5.5396,5.5405,5.5427,5.5485,5.5511,5.5494,5.5602,5.5568,5.5573,5.5576,5.5608,5.562,5.563,5.5497,5.5496,5.5496,0,0,5.5262,5.5281,5.5329,5.5348,5.5376,5.5381,5.5392,5.5416,5.5422,5.5473,5.5457,5.5488,5.5543,5.556,5.5575,5.5656,5.5642,5.5666,5.5709,5.5742,5.5752,5.576,5.5789,5.58,5.5672,5.5672,5.5672,0,5.5296,5.5355,5.5354,5.5398,5.5418,5.5402,5.545,5.5467,5.5502,5.5515,5.5496,5.5566,5.5579,5.5641,5.5661,5.5674,5.5686,5.5664,5.5751,5.5759,5.5767,5.5795,5.5806,5.5675,5.5675,5.5674,5.5674,0,5.5394,5.5435,5.547,5.5508,5.5531,5.5576,5.5581,5.5605,5.56,5.5606,5.5658,5.5674,5.5707,5.5721,5.5715,5.5782,5.5771,5.5752,5.5718,5.5781,5.5807,5.5818,5.5679,5.5678,5.5677,5.5676,0,0,5.549,5.5528,5.554,5.5558,5.5587,5.5617,5.566,5.5695,5.5716,5.574,5.5776,5.5823,5.5805,5.5823,5.5819,5.5848,5.5912,5.5825,5.5825,5.5841,5.5986,5.6001,5.6014,5.5902,5.5904,5.5906,5.5984,0,5.5567,5.5646,5.5648,5.572,5.5757,5.5742,5.5779,5.58,5.5807,5.5838,5.5844,5.5878,5.5852,5.5863,5.5891,5.5898,5.5941,5.5892,5.5934,5.5935,5.593,5.6027,5.6043,5.6117,5.5994,5.5996,5.5997,0,5.5667,5.5698,5.5775,5.58,5.5815,5.585,5.5882,5.5912,5.5934,5.5937,5.5958,5.5949,5.5991,5.5956,5.6013,5.598,5.5997,5.6003,5.6006,5.601,5.5971,5.6035,5.6141,5.6152,5.6013,5.6012,5.6011,0,5.5731,5.5791,5.5845,5.586,5.5889,5.5914,5.5927,5.5948,5.5969,5.5996,5.6009,5.6039,5.6056,5.6079,5.6078,5.6053,5.6137,5.6101,5.6139,5.6139,5.6158,5.6157,5.6269,5.6168,5.6168,5.6167,5.6167,0,5.5817,5.5865,5.5874,5.5907,5.596,5.5959,5.601,5.602,5.6039,5.6072,5.606,5.6091,5.6088,5.6118,5.6117,5.6165,5.6172,5.6175,5.6174,5.6177,5.6177,5.6188,5.6184,5.617,5.617,5.6169,5.6169,0,5.5897,5.5905,5.5963,5.5988,5.5995,5.6032,5.6052,5.6082,5.6088,5.613,5.614,5.6148,5.6184,5.6185,5.6225,5.6224,5.6283,5.6276,5.6277,5.6276,5.6314,5.6311,5.6438,5.6455,5.6342,5.6343,5.6344,0,5.5953,5.5989,5.6018,5.6041,5.6057,5.6093,5.6115,5.6115,5.6138,5.6167,5.6194,5.6229,5.6257,5.6314,5.6322,5.6352,5.6347,5.6389,5.6351,5.6353,5.6348,5.6347,5.635,5.6397,5.6398,5.6399,5.64,0,5.605,5.6053,5.6087,5.6122,5.615,5.6177,5.6202,5.6221,5.6223,5.6249,5.6287,5.6309,5.6351,5.6386,5.6415,5.6426,5.6413,5.6412,5.6422,5.6426,5.6425,5.6427,5.6298,5.6409,5.6408,5.6407,5.6407,5.6406,5.612,5.6152,5.6179,5.6217,5.6236,5.626,5.6291,5.6301,5.6333,5.637,5.6367,5.6408,5.6429,5.6468,5.6481,5.6512,5.6498,5.6513,5.6517,5.6521,5.6526,5.642,5.6517,5.6517,5.6517,5.6517,5.6516,0,5.6218,5.6234,5.6269,5.6307,5.6336,5.6324,5.6351,5.6376,5.6414,5.6435,5.6464,5.6507,5.654,5.6551,5.6583,5.6606,5.6601,5.6615,5.6613,5.6616,5.6536,5.6525,5.6618,5.6618,5.6618,5.6618,5.6618,5.6618,5.6272,5.6327,5.6332,5.6396,5.641,5.6454,5.647,5.6492,5.6509,5.6559,5.6588,5.6596,5.6613,5.6646,5.6675,5.6677,5.669,5.6706,5.6706,5.6632,5.6621,5.6612,5.6601,5.6709,5.6709,5.6783,5.6784,5.6784]}]]